Lid_Strength_Index
-1 -1 -1 -1 -0 -0 -0 -0 -0 -1 -1 -1 -1 -1 -0 -0 1 4 5 3 2 -1 -0 4 4 5 4 4 4 4 10 11 10 9 9 6 7 7 6 7 7 6 8 7 4
-2 -1 -1 -1 -1 -0 -0 0 0 -0 -0 -1 -1 -1 -1 -0 3 6 1 -0 -0 -1 4 6 6 5 6 5 5 7 10 9 7 7 8 7 7 6 7 7 8 8 7 5 5
-2 -2 -1 -1 -0 -1 -0 0 1 0 -0 -0 -1 -1 -1 0 6 5 0 -0 -1 -0 3 5 6 6 7 6 7 6 9 7 6 6 6 7 7 6 7 8 7 8 8 6 6
-2 -2 -2 -1 -0 -1 0 1 1 0 -0 -0 -1 -1 -1 2 10 3 -0 1 -1 2 4 6 7 8 8 8 6 9 6 6 6 6 6 7 6 8 7 8 6 6 6 6 6
-1 -1 -1 -1 -1 -0 -0 0 1 1 0 0 -1 -1 1 5 5 2 -1 1 2 4 6 7 8 8 9 8 7 8 7 6 6 6 6 5 7 7 7 8 6 6 6 6 6
-1 -1 -1 -1 -1 -0 0 -0 1 1 1 0 -0 -1 3 8 3 3 3 2 4 5 6 7 7 7 8 8 8 7 7 7 6 6 6 7 7 7 6 7 7 6 6 6 6
-1 -1 -1 -2 -2 -1 -1 -0 0 1 1 1 -1 0 4 5 1 3 3 3 4 5 7 6 6 7 7 9 7 7 10 8 7 7 7 6 9 9 7 7 7 7 7 6 6
-2 -1 -1 -1 -2 -2 -1 -1 -1 -0 0 1 -1 2 7 1 2 4 3 5 3 5 5 5 5 7 7 7 8 9 9 12 8 7 7 8 12 7 6 7 8 8 8 7 6
-1 -1 -2 -2 -2 -1 -2 -1 -1 -0 -0 0 1 4 8 2 5 3 4 6 4 5 5 5 5 8 7 10 12 10 14 12 10 7 8 9 11 8 7 7 7 7 8 8 8
-1 -1 -1 -2 -2 -2 -1 -1 -1 -0 1 1 1 6 5 6 4 5 4 4 6 6 8 8 8 10 10 11 16 13 13 12 12 9 8 10 10 8 8 8 8 7 8 8 8
-1 -1 -1 -2 -2 -2 -1 1 4 5 4 6 6 7 7 5 4 6 4 5 6 8 12 10 12 13 11 10 11 11 11 12 11 9 10 10 10 8 8 9 8 8 8 8 8
-1 -1 -1 -2 -2 -2 -0 4 3 3 7 4 4 4 3 3 7 6 4 8 8 11 10 12 14 11 9 10 11 12 11 12 11 10 11 10 11 9 8 9 8 8 8 8 8
-1 -1 -1 -1 -2 -0 2 3 -0 0 7 6 4 5 4 3 6 6 6 7 10 10 11 13 12 10 10 11 11 12 12 11 12 11 12 13 13 12 10 8 8 7 7 7 7
-1 -1 -1 -2 1 1 3 0 -0 0 12 9 7 6 4 4 8 3 5 7 9 11 11 12 11 11 11 11 11 13 10 9 11 13 16 13 18 14 12 10 9 9 8 7 7
0 -1 -1 -2 2 3 2 -0 -0 2 20 8 7 2 4 7 7 6 4 7 10 11 10 12 13 13 13 12 10 12 10 10 10 13 15 15 18 15 13 13 11 10 9 9 8
1 -0 -1 0 1 1 -1 0 3 13 19 11 7 8 8 7 6 7 7 6 7 10 10 11 10 11 11 10 9 9 11 11 11 12 19 15 16 17 14 13 13 12 12 11 12
1 2 1 0 4 -1 -0 4 14 18 9 12 11 9 9 10 9 9 10 11 13 16 15 13 13 12 11 11 9 10 13 18 19 19 19 17 17 15 13 13 13 13 12 12 13
0 -0 1 1 -1 -0 2 9 17 13 12 8 9 9 12 10 10 9 11 12 11 12 14 16 18 12 12 11 12 12 12 17 22 21 19 18 20 16 14 12 13 13 12 12 12
-1 1 3 2 0 0 7 15 15 12 9 10 10 12 12 10 10 10 11 12 11 11 14 16 16 11 11 12 10 12 14 12 18 22 18 18 16 13 13 13 13 12 11 12 11
2 4 4 3 -0 3 10 13 12 8 7 9 13 11 14 12 12 11 11 10 10 9 9 12 16 13 12 12 12 11 10 15 17 24 22 19 18 17 15 14 13 13 13 12 11
3 7 3 1 1 7 13 12 10 7 7 9 11 12 11 12 11 12 11 9 9 9 9 12 13 15 12 14 14 15 13 13 14 16 19 20 18 15 13 13 13 12 11 12 12
5 10 2 2 9 9 12 10 8 8 6 7 8 9 10 10 11 11 12 9 7 8 11 10 12 17 15 13 12 14 12 11 16 19 19 19 18 13 12 12 12 11 11 11 11
7 7 2 3 12 12 9 10 9 9 8 9 9 8 8 10 13 10 10 7 7 8 10 10 13 20 17 14 13 16 14 11 12 15 18 19 19 14 12 12 12 12 11 11 11
6 10 7 7 9 10 11 11 11 7 8 8 8 8 9 10 9 11 10 8 8 8 6 8 11 14 17 16 13 16 15 14 12 16 18 18 18 16 14 14 13 12 11 11 11
6 9 7 11 11 11 10 11 11 12 9 8 10 9 10 13 11 12 9 10 9 7 8 9 17 13 13 13 13 14 15 14 14 13 16 16 16 15 13 13 13 12 12 12 11
7 8 7 9 10 11 11 11 12 11 10 11 12 9 9 12 11 12 10 11 11 9 10 9 16 14 17 13 13 15 13 14 14 13 12 14 15 13 11 12 13 12 12 11 11
5 5 6 9 10 12 12 12 11 9 9 8 9 9 10 9 7 7 7 7 8 10 11 11 15 17 20 13 13 18 14 14 14 13 12 14 13 12 13 12 12 11 11 12 12